WB5TZJ Weather Reports


Display with metric or nautical units.
time (UTC)temp
F
wind
direction
speed
MPH
gust
MPH
rain 1hr
in
rain 24hr
in
rain mn
in
humidity
%
barometer
mb
20260504021036 72 0 0.0 0.0 0.00 0.00 0.00 43 1014.9
20260504020036 72 0 0.0 0.0 0.00 0.00 0.00 45 1014.9
20260504015036 72 0 0.0 0.0 0.00 0.00 0.00 44 1014.5
20260504014036 73 0 0.0 0.0 0.00 0.00 0.00 44 1014.5
20260504013036 73 0 0.0 0.0 0.00 0.00 0.00 42 1014.5
20260504012036 73 0 0.0 0.0 0.00 0.00 0.00 43 1014.9
20260504011036 73 0 0.0 0.0 0.00 0.00 0.00 46 1014.5
20260504010036 72 0 0.0 0.0 0.00 0.00 0.00 45 1014.9
20260504005036 72 0 0.0 0.0 0.00 0.00 0.00 42 1014.9
20260504004036 73 0 0.0 0.0 0.00 0.00 0.00 42 1014.9
20260504003037 73 0 0.0 0.0 0.00 0.00 0.00 44 1014.9
20260504002037 73 0 0.0 0.0 0.00 0.00 0.00 47 1014.5
20260504001037 72 0 0.0 0.0 0.00 0.00 0.00 45 1014.5
20260504000037 72 0 0.0 0.0 0.00 0.00 0.00 45 1014.5
20260503235037 72 0 0.0 0.0 0.00 0.00 0.00 46 1014.9
20260503234037 72 0 0.0 0.0 0.00 0.00 0.00 46 1014.9
20260503233037 72 0 0.0 0.0 0.00 0.00 0.00 46 1014.9
20260503232037 72 0 0.0 0.0 0.00 0.00 0.00 45 1014.9
20260503231037 72 0 0.0 0.0 0.00 0.00 0.00 46 1014.9
20260503230037 72 0 0.0 0.0 0.00 0.00 0.00 46 1014.9
20260503225037 72 0 0.0 0.0 0.00 0.00 0.00 42 1015.2
20260503224037 72 0 0.0 0.0 0.00 0.00 0.00 43 1015.2
20260503223037 72 0 0.0 0.0 0.00 0.00 0.00 45 1014.9
20260503222037 72 0 0.0 0.0 0.00 0.00 0.00 43 1015.2
20260503221037 72 0 0.0 0.0 0.00 0.00 0.00 45 1015.2
20260503220037 72 0 0.0 0.0 0.00 0.00 0.00 46 1015.2
20260503215037 72 0 0.0 0.0 0.00 0.00 0.00 45 1015.5
20260503214037 72 0 0.0 0.0 0.00 0.00 0.00 45 1015.5
20260503213037 72 0 0.0 0.0 0.00 0.00 0.00 46 1015.9
20260503212037 72 0 0.0 0.0 0.00 0.00 0.00 45 1016.2
20260503211037 72 0 0.0 0.0 0.00 0.00 0.00 45 1016.5
20260503210037 72 0 0.0 0.0 0.00 0.00 0.00 43 1016.9
20260503205037 72 0 0.0 0.0 0.00 0.00 0.00 46 1017.2
20260503204037 72 0 0.0 0.0 0.00 0.00 0.00 46 1017.2
20260503203037 72 0 0.0 0.0 0.00 0.00 0.00 44 1017.2
20260503202037 72 0 0.0 0.0 0.00 0.00 0.00 46 1017.6
20260503201038 72 0 0.0 0.0 0.00 0.00 0.00 43 1017.9
20260503200037 72 0 0.0 0.0 0.00 0.00 0.00 44 1018.2
20260503195037 73 0 0.0 0.0 0.00 0.00 0.00 43 1018.2
20260503194037 73 0 0.0 0.0 0.00 0.00 0.00 44 1018.2
20260503193037 73 0 0.0 0.0 0.00 0.00 0.00 43 1018.6
20260503192037 73 0 0.0 0.0 0.00 0.00 0.00 46 1018.6
20260503191037 72 0 0.0 0.0 0.00 0.00 0.00 46 1018.9
20260503190038 73 0 0.0 0.0 0.00 0.00 0.00 43 1018.9
20260503185038 73 0 0.0 0.0 0.00 0.00 0.00 45 1019.3
20260503184038 72 0 0.0 0.0 0.00 0.00 0.00 47 1019.6
20260503183038 72 0 0.0 0.0 0.00 0.00 0.00 45 1019.6
20260503182038 72 0 0.0 0.0 0.00 0.00 0.00 47 1019.6
20260503181038 72 0 0.0 0.0 0.00 0.00 0.00 47 1019.9
20260503180038 72 0 0.0 0.0 0.00 0.00 0.00 46 1020.3
20260503175038 72 0 0.0 0.0 0.00 0.00 0.00 47 1020.3
20260503174038 72 0 0.0 0.0 0.00 0.00 0.00 46 1020.6
20260503173038 72 0 0.0 0.0 0.00 0.00 0.00 45 1020.9
20260503172038 72 0 0.0 0.0 0.00 0.00 0.00 47 1020.9
20260503171038 72 0 0.0 0.0 0.00 0.00 0.00 46 1021.3
20260503131039 74 0 0.0 0.0 0.00 0.00 0.00 46 1021.6
20260503081039 73 0 0.0 0.0 0.00 0.00 0.00 46 1020.3
20260503072039 73 0 0.0 0.0 0.00 0.00 0.00 46 1020.9
20260503071040 73 0 0.0 0.0 0.00 0.00 0.00 46 1020.6
20260503055040 73 0 0.0 0.0 0.00 0.00 0.00 47 1020.9
20260503054040 73 0 0.0 0.0 0.00 0.00 0.00 45 1020.9
20260503053040 73 0 0.0 0.0 0.00 0.00 0.00 46 1020.6
20260503052040 73 0 0.0 0.0 0.00 0.00 0.00 46 1020.6
20260503051040 73 0 0.0 0.0 0.00 0.00 0.00 44 1020.6
20260503050040 73 0 0.0 0.0 0.00 0.00 0.00 47 1020.6
20260503045040 72 0 0.0 0.0 0.00 0.00 0.00 47 1020.3
20260503044040 73 0 0.0 0.0 0.00 0.00 0.00 47 1020.3
20260503043040 73 0 0.0 0.0 0.00 0.00 0.00 46 1020.6
20260503042040 73 0 0.0 0.0 0.00 0.00 0.00 46 1020.3
20260503041040 72 0 0.0 0.0 0.00 0.00 0.00 47 1020.3
20260503040040 72 0 0.0 0.0 0.00 0.00 0.00 45 1020.6
20260503035040 73 0 0.0 0.0 0.00 0.00 0.00 46 1020.3
20260503034040 73 0 0.0 0.0 0.00 0.00 0.00 46 1020.3
20260503033040 73 0 0.0 0.0 0.00 0.00 0.00 44 1019.9
20260503032040 73 0 0.0 0.0 0.00 0.00 0.00 47 1019.9
20260503031040 73 0 0.0 0.0 0.00 0.00 0.00 45 1019.6
20260503030040 73 0 0.0 0.0 0.00 0.00 0.00 45 1019.6
20260503025040 73 0 0.0 0.0 0.00 0.00 0.00 44 1019.6
20260503024040 73 0 0.0 0.0 0.00 0.00 0.00 47 1019.3
20260503023040 72 0 0.0 0.0 0.00 0.00 0.00 47 1019.3
20260503022040 73 0 0.0 0.0 0.00 0.00 0.00 46 1019.3